Terminal Aerodrome Forecast
Issued by NWS

Home | Current Version | Previous Version | Text Only | Print | Product List | Glossary On
Versions: 1 2 3 4 5 6 7 8 9 10 11 12 13 14 15 16 17
000
FTUS43 KDTX 291731
TAFMBS
TAF
KMBS 291731Z 2918/3018 18016G22KT P6SM SCT040 BKN060
     FM300100 20014KT 4SM -RA SCT015 OVC030
     FM300600 23010KT P6SM OVC030
     FM301600 30014KT P6SM OVC030=

USA.gov is the U.S. government's official web portal to all federal, state and local government web resources and services.